Hourly Data Report for February 08, 2019

TORONTO INTL A
ONTARIO
Current Station Operator: NAVCAN

43°40'36.000" N
79°37'50.000" W
173.40 m
6158731
71624
YYZ

Download Data

Hourly Data (February 2019)
Hourly Data Report for February 8, 2019
TIME
LST
Temp Definition
°C
Dew Point Definition
°C
Rel Hum Definition
%
Precip. Amount Definition
mm

Wind Dir Definition
10's deg

Wind Spd Definition
km/h
Visibility Definition
km
Stn Press Definition
kPa
Hmdx Definition


Wind Chill Definition


Weather Definition


00:00 1.5 0.7 95   17 9 0.8 97.87     Drizzle, Fog
01:00 3.6 2.9 95   19 14 1.2 97.84     Drizzle, Fog
02:00 3.3 2.5 95   27 47 12.9 98.06     LegendNANA
03:00 2.3 1.3 93   26 42 12.9 98.28     LegendNANA
04:00 2.0 0.3 89   26 45 24.1 98.43     Mostly Cloudy
05:00 1.2 -1.0 86   26 40 24.1 98.57     LegendNANA
06:00 0.4 -2.8 79   27 52 24.1 98.71     LegendNANA
07:00 -0.9 -5.2 72   26 36 24.1 98.92   -8 Snow
08:00 -3.1 -8.0 69   26 47 4.8 99.13   -12 Snow
09:00 -3.4 -9.0 65   26 50 4.8 99.27   -13 Snow Showers
10:00 -4.4 -10.5 63   26 58 24.1 99.42   -15 Snow Showers
11:00 -5.0 -10.7 64   25 41 4.8 99.55   -14 Snow Showers
12:00 -4.5 -10.6 63   26 52 24.1 99.63   -14 Snow Showers
13:00 -4.6 -11.1 61   26 52 24.1 99.69   -15 Snow Showers
14:00 -4.5 -11.1 60   26 55 19.3 99.77   -15 Snow Showers
15:00 -4.9 -11.9 58   26 52 19.3 99.84   -15 Snow Showers
16:00 -5.8 -11.3 65   26 44 19.3 100.00   -16 Snow Showers
17:00 -6.6 -13.0 61   28 46 1.6 100.13   -17 Snow Showers
18:00 -7.9 -13.6 64   27 38 19.3 100.29   -18 Snow Showers
19:00 -8.2 -14.2 63   27 48 24.1 100.43   -19 Snow Showers
20:00 -8.8 -14.9 62   27 39 24.1 100.52   -19 LegendNANA
21:00 -8.9 -15.5 59   27 37 24.1 100.65   -19 LegendNANA
22:00 -9.5 -15.2 63   27 37 24.1 100.78   -20 Mainly Clear
23:00 -9.4 -16.0 59   27 54 24.1 100.92   -21 LegendNANA

Notes on Data Quality.

Legend

  • E = Estimated
  • M = Missing
  • NA = Not Available*
  • [empty] = Indicates an unobserved value
Date modified: